Regional Weather Roundup
Issued by NWS Wakefield, VA

Home | Current Version | Previous Version | Text Only | Print | Product List | Glossary On
Versions: 1 2 3 4 5 6 7 8 9 10 11 12 13 14 15 16 17 18 19 20 21 22 23 24 25 26 27 28 29 30 31 32 33 34 35 36 37 38 39 40 41 42 43 44 45 46 47 48 49 50
000
ASUS41 KAKQ 290515
RWRAKQ

REGIONAL WEATHER ROUNDUP
NATIONAL WEATHER SERVICE WAKEFIELD VA
100 AM EDT FRI JUL 29 2016

Note: "fair" indicates few or no clouds below 12,000 feet with no
significant weather and/or obstructions to visibility. * = Denotes
station may not report precipitation (e.g., rain,snow,etc.),
thunder or fog.

VAZ042-051-052>054-056-290600-
NORTHERN VIRGINIA

CITY           SKY/WX    TMP DP  RH WIND       PRES   REMARKS
WASH NATIONAL  LGT RAIN  77  75  93 CALM      29.84S
DULLES         CLOUDY    75  73  93 N7        29.85S
FORT BELVOIR   MOCLDY    75  73  94 VRB2      29.83F
QUANTICO       CLOUDY    77  74  90 SE9       29.85R
FREDERICKSBRG* LGT RAIN  76  76 100 CALM      29.83S
STAFFORD*      CLOUDY    75  73  94 CALM      29.88S
WARRENTON      CLOUDY    75  70  84 CALM      29.84S
CULPEPER*      CLOUDY    73  73  99 CALM      29.86S
MANASSAS*      CLOUDY    75  75 100 CALM      29.85R
LEESBURG*      CLOUDY    75  75 100 N8        29.86F FOG
WINCHESTER     DRIZZLE   70  70 100 NW3       29.88F
FRONT ROYAL*   CLOUDY    70  70 100 N3        29.89R
LURAY*         RAIN     N/A N/A N/A NE3       29.89S
$$

VAZ048-049-060>072-079>083-290600-
CENTRAL AND SOUTH CENTRAL VIRGINIA

CITY           SKY/WX    TMP DP  RH WIND       PRES   REMARKS
RICHMOND       MOCLDY    75  74  96 E3        29.84R
CHESTERFIELD*  MOCLDY    77  63  61 CALM      29.86R
PETERSBURG*    FAIR      80  78  95 N7        29.85R
HANOVER        MOCLDY    75  72  90 CALM      29.85R
TAPPAHANNOCK*  FAIR      76  76 100 CALM      29.84S
QUINTON*       FAIR      75  74  99 E5        29.83S
CHARLOTTSVILLE CLOUDY    75  71  87 CALM      29.87S
GORDONSVILLE*  CLOUDY    73  72  98 CALM      29.86S
ORANGE*        LGT RAIN  73  73 100 CALM      29.88S
LOUISA*        LGT RAIN  77  75  94 CALM      29.85S
BUMPASS*       CLOUDY    74  74 100 CALM      29.84R
FARMVILLE*     LGT RAIN N/A N/A N/A CALM      29.86F
CREWE*         NOT AVBL
FORT PICKETT*  CLOUDY    79  78  98 CALM      29.85R
CHASE CITY*    MOCLDY    80  75  85 N7        29.86R
CLARKSVILLE*   FAIR      77  72  83 SW3       29.84F
SOUTH HILL*    FAIR      79  73  82 S6        29.89F
LAWRENCEVILLE* FAIR      82  74  77 SW6       29.84S
EMPORIA*       FAIR      82  72  69 S5        29.85S
$$

VAZ088>098-290600-
SOUTHEAST VIRGINIA

CITY           SKY/WX    TMP DP  RH WIND       PRES   REMARKS
NORFOLK        FAIR      85  74  69 SW10      29.82S
VIRGINIA BEACH MOCLDY    90  74  59 SW8       29.83R HX  99
NORFOLK NAVAL  FAIR      86  74  67 SW7       29.84S
WEST POINT*    FAIR      75  73  94 E6        29.83F
SALUDA*        FAIR      75  74  97 NE3       29.84R
NEWPORT NEWS   CLOUDY    84  75  74 NW7       29.82F
LANGLEY AFB    CLOUDY    87  74  64 W7        29.82S HX  96
FORT EUSTIS    MOCLDY    85  76  74 VRB6      29.81S
WILLIAMSBURG*  FAIR      82  75  78 NE3       29.84S
HR EXEC AP*    FAIR      82  73  74 SW5       29.85S
FRANKLIN*      FAIR      84  71  65 SW8       29.83F
US460-WAKEFLD  FAIR      84  72  67 VRB6      29.82S
$$

VAZ020-022-025-037-045-290600-
WEST CENTRAL AND SOUTHWEST VIRGINIA

CITY           SKY/WX    TMP DP  RH WIND       PRES   REMARKS
STAUNTON*      LGT RAIN  70  69  96 CALM      29.93S
WAYNESBORO*    CLOUDY    70  69  96 N5        29.92S
HOT SPRINGS VA DRZL/FOG  66  66 100 W12       29.99F VSB<1/4
LYNCHBURG      MOCLDY    72  72 100 SW5       29.90R
DANVILLE       FAIR      77  71  82 CALM      29.87R
SOUTH BOSTON*  FAIR     N/A N/A N/A NW3       29.85S
MARTINSVILLE   CLOUDY    76  70  81 CALM      29.92R
ROANOKE        CLOUDY    73  71  93 W6        29.93R
BLACKSBURG     CLOUDY    70  69  98 CALM      30.00R
DUBLIN*        CLOUDY    71  69  92 W6        29.99R
MARION*        CLOUDY    69  68  96 SW5       30.03S
HILLSVILLE*    CLOUDY    69  69  98 NW7       30.00R
RICHLANDS*     FOG       67  67 100 NW3       30.03R VSB 1/2
WISE*          CLOUDY    68  66  94 W5        30.05R
ABINGDON*      CLOUDY    71  70  99 W3        30.01R
$$

MDZ021>025-VAZ099-100-290600-
SOUTHERN MARYLAND AND THE DELMARVA PENINSULA

CITY           SKY/WX    TMP DP  RH WIND       PRES   REMARKS
PATUXENT RIVER CLOUDY    76  73  91 S8        29.83R THUNDER FOG
BAY BRIDGE APT LGT RAIN  75  73  94 E7        29.84F FOG
LEONARDTOWN    CLOUDY    73  72  94 SE3       29.86R
DOVER          LGT RAIN  75  75 100 S3        29.84S
GEORGETOWN     LGT RAIN  74  72  93 VRB3      29.84F
EASTON         CLOUDY    75  75 100 NE5       29.89R
CAMBRIDGE      CLOUDY    72  72 100 CALM      29.83F
SALISBURY      NOT AVBL
OCEAN CITY       N/A    N/A N/A N/A MISG      29.83F
WALLOPS ISLAND TSTM      77  75  93 S7        29.84S FOG
ACCOMACK*      TSTM      72  70  94 CALM      29.86R
$$

NCZ012>017-030>032-290600-
NORTH CENTRAL AND EASTERN NORTH CAROLINA

CITY           SKY/WX    TMP DP  RH WIND       PRES   REMARKS
ROANOKE RAPIDS FAIR      81  72  74 SW7       29.85R
RALEIGH        CLEAR     79  71  76 SW7       29.88R
ELIZABETH CITY CLEAR     83  74  74 SW9       29.85R
AHOSKIE*       CLEAR     78  73  84 CALM      29.86R
EDENTON*       CLEAR     86  73  64 SW5       29.87R
CURRITUCK*     CLEAR     84  77  79 SW7       29.85S
KILL DEVIL HLS CLEAR     84  76  76 SW9       29.86R
MANTEO           N/A     84  79  85 W9        29.88R HX  96
CAPE HATTERAS  CLEAR     82  77  84 SW12      29.88S
TARBORO*       FAIR      82  72  71 S3        29.87R
GOLDSBORO      CLEAR     84  79  84 SW9       29.86S HX  95
WASHINGTON     CLEAR     82  74  77 SW7       29.87R
GREENVILLE     CLEAR     82  75  78 SW9       29.89S
NEW BERN       CLEAR     80  74  81 SW7       29.90R
WILMINGTON     CLEAR     83  76  79 SW10      29.91F
$$

VAZ048-290600-
ELSEWHERE

CITY           SKY/WX    TMP DP  RH WIND       PRES   REMARKS
HARRISBURG PA  LGT RAIN  74  73  97 CALM      29.88S FOG
BALTIMORE      CLOUDY    75  73  93 CALM      29.84F
ANNAPOLIS      HVY RAIN  77  75  93 E6        29.83S FOG
ANDREWS AFB    MOCLDY    75  73  95 E3        29.84R
PHILADELPHIA   CLOUDY    75  72  90 VRB6      29.86S
GREENSBORO     PTCLDY    81  65  58 W8        29.88S
ROCKY MOUNT    CLEAR     82  73  74 SW7       29.87R
$$

VAZ100-290600-
MARINE

STATION/POSITION TIME  TEMP    WIND        PRES    WAVE   SWELL
                       AIR SEA DIR/SP/G            HT/PER HT/PER
                 (UTC) (F)     (DEG/KT/KT) (MB)    (FT/S) (FT/S)
BRANDYWINE LGT   0400   76     220/  4/  5   N/A
CAPE MAY NJ      0400   75 73  220/  6/  8 1010.9
LEWES DE         0400   75 72  180/  2/  3 1010.7
OCEAN-CITY-INLET 0400   75 74   90/  5/  7 1011.1
WACHAPREAGUE VA  0400   78 87   80/  3/  4 1010.0
THOMAS POINT MD  0500   76 84  100/ 12/ 13 1011.6F
GOOSES REEF MD   0500   78 85  140/ 12/ 14 1011.5R   1/ 4
COVE POINT MD    0400   78     150/ 10/ 13 1010.5
SOLOMONS ISLAND  0400   77 86  100/  4/  7   N/A
BISHOPS HEAD MD  0400   79     150/ 10/ 11 1010.5
PINEY POINT MD   0400          190/ 19/ 23   N/A
POTOMAC MD       0500   79 85  210/ 10/ 16 1009.8R   1/ 3
CAMBRIDGE MD     0400   76 88   80/  8/ 10 1009.6
LEWISETTA VA     0400   77 87  170/ 12/ 13 1009.7
RAPPAHANNOCK LGT 0400          130/ 16/ 17 1010.0
STINGRAY PT      0500   78 86  320/ 10/ 12 1011.1F   1/ 3
YORK RVR RNG VA  0400   84     130/ 10/ 11 1009.7
YORKTOWN VA      0400   84 85   70/  8/ 11 1010.1
JAMESTOWN VA     0500   84 90   30/  4/  6   N/A     0
DOMINION TERM VA 0400   88     240/ 15/ 20 1010.0
KIPTOPEKE VA     0400      77   90/  9/ 12   N/A
CHES BAY BRIDGE  0400   87 81  200/ 11/ 12 1009.9
CAPE HENRY VA    0400   84     210/  6/  9   N/A
WILLOUBY STN VA  0400   88     210/ 12/ 14   N/A
CAPE HENRY BUOY  0412      76                N/A     2/ 4
1ST LANDING BUOY 0500   84 76  230/ 12/ 16 1009.6F   1/ 3
CAPE CHARLES BUO 0426      74                N/A     2/ 7
OFFSHORE WE BUOY 0421      83                N/A     2/ 4
64NM E OF VA BCH 0450   84 81  210/ 14/ 16 1010.8R   3/ 4   2/ 7
DUCK PIER NC     0400   87 72  230/ 17/ 19 1010.0
44100 DUCK FRF   0405      80                N/A     2/ 7
44056 DUCK FRF   0411      76                N/A     1/ 7
OREGON INLET NC  0400   86 80  220/ 16/ 20 1010.8
HATTERAS NC      0400   82 84  220/ 11/ 15 1011.3
DIAMOND SHLS NC  0450   85 85  230/ 19/ 23 1011.5F   4/ 4
CAPE LOOKOUT NC  0500   84     230/ 12/ 20 1012.1F
$$



USA.gov is the U.S. government's official web portal to all federal, state and local government web resources and services.